Darstellungsparameter: Aktuell verwendete Einstellungen:
Skalierung der Graphiken ... ?
xyx+y,   Skalierungsfaktor:      Skalierung: Modus: x, Faktor: 1
Darstellungszeitraum ... ?
Vom - - bis: - -   Zeitraum: 11.07.2020 - 17.07.2020
Min/Max/Avg-Anzeige ... ?
Zeige MMA aktuell
Zeige MMA Monat
Zeige MMA alles
Zeige --A aktuell
Zeige --A Monat
Zeige --A alles
Keine MMA-Anzeige
MMA:
Average (ber die Originaldaten)
MMA-Basis: 23.02.2003 - 03.08.2020
Quicknavigation für Darstellung... ?
Tage:      1T, 2T, 3T, 5T -1T -2T -3T -5T +1T +2T +3T +5T
Wochen: 1W, 2W, 3W -1W -2W -3W +1W +2W +3W
Monate: 1M, 3M, 6M -1M -3M -6M +1M +3M +6M
Jahre:    1J, 3J, 5J, 10J -1J -3J -5J -10J +1J +3J +5J +10J
Nutze für die Darstellung ... ?
Originaldaten oder ...
Mittelwerte Minima Maxima auf...
Stundenbasis Tagesbasis Wochenbasis
Monatsbasis Jahresbasis      Datenbasis: Mittelwerte auf Stundenbasis
Darstellen als:
Statistik (Auto) Statistik J:M      Darstellung:
Zur Graphik,    zurück zur Übersicht aller Sensoren.
 
Tabellarische Datenbersicht: ?
 
Sensor: Nr:Datum:Temp:Abs-Feuchte:Windchill:Wind:
Aussen-T/F 1 11-07-2020 00:00:00 15.58333 C 10.45 g/m*3 15.58 C 0.93333 km/h
2 11-07-2020 01:00:00 14.3 C 10.06 g/m*3 14.3 C 2.53333 km/h
3 11-07-2020 02:00:00 12.725 C 9.68 g/m*3 12.73 C 2.53333 km/h
4 11-07-2020 03:00:00 11.88333 C 9.55 g/m*3 11.88 C 3.06667 km/h
5 11-07-2020 04:00:00 11.20833 C 9.25 g/m*3 11.21 C 0 km/h
6 11-07-2020 05:00:00 10.45 C 8.94 g/m*3 10.45 C 0.26667 km/h
7 11-07-2020 06:00:00 10.41667 C 9.06 g/m*3 10.42 C 0 km/h
8 11-07-2020 07:00:00 11.10833 C 9.59 g/m*3 11.11 C 0 km/h
9 11-07-2020 08:00:00 13.51667 C 10.52 g/m*3 13.52 C 3.2 km/h
10 11-07-2020 09:00:00 15.38333 C 10.1 g/m*3 15.38 C 5.1 km/h
11 11-07-2020 10:00:00 16.6 C 9.42 g/m*3 16.6 C 6.71667 km/h
12 11-07-2020 11:00:00 17.75 C 8.98 g/m*3 17.75 C 6.84167 km/h
13 11-07-2020 12:00:00 18.4 C 8.81 g/m*3 18.4 C 9.40833 km/h
14 11-07-2020 13:00:00 19.10833 C 8.64 g/m*3 19.11 C 8.60833 km/h
15 11-07-2020 14:00:00 19.775 C 8.51 g/m*3 19.77 C 11.15833 km/h
16 11-07-2020 15:00:00 21.2 C 7.95 g/m*3 21.2 C 11.275 km/h
17 11-07-2020 16:00:00 22.05 C 7.85 g/m*3 22.05 C 10.9 km/h
18 11-07-2020 17:00:00 22.38333 C 7.95 g/m*3 22.38 C 8.05833 km/h
19 11-07-2020 18:00:00 21.99167 C 7.86 g/m*3 21.99 C 8.45 km/h
20 11-07-2020 19:00:00 21.88333 C 8.03 g/m*3 21.88 C 8.05833 km/h
21 11-07-2020 20:00:00 21.125 C 8.16 g/m*3 21.13 C 8.31667 km/h
22 11-07-2020 21:00:00 17.93333 C 9.43 g/m*3 17.93 C 7.8 km/h
23 11-07-2020 22:00:00 16.25 C 9.56 g/m*3 16.25 C 1.74167 km/h
24 11-07-2020 23:00:00 14.75833 C 9.4 g/m*3 14.76 C 3.86667 km/h
25 12-07-2020 00:00:00 13.35 C 9.25 g/m*3 13.35 C 4.93333 km/h
Sensor: Nr:Datum:Temp:Abs-Feuchte:Windchill:Wind:
Aussen-T/F 26 12-07-2020 01:00:00 12.61667 C 9.27 g/m*3 12.62 C 2.53333 km/h
27 12-07-2020 02:00:00 11.95833 C 9.14 g/m*3 11.96 C 0.66667 km/h
28 12-07-2020 03:00:00 10.73333 C 8.71 g/m*3 10.73 C 0 km/h
29 12-07-2020 04:00:00 9.91667 C 8.51 g/m*3 9.92 C 0 km/h
30 12-07-2020 05:00:00 9.39167 C 8.35 g/m*3 9.39 C 0 km/h
31 12-07-2020 06:00:00 9.25 C 8.37 g/m*3 9.25 C 0 km/h
32 12-07-2020 07:00:00 9.70833 C 8.7 g/m*3 9.71 C 0 km/h
33 12-07-2020 08:00:00 10.84167 C 9.41 g/m*3 10.84 C 0 km/h
34 12-07-2020 09:00:00 12.76667 C 10.45 g/m*3 12.77 C 0.53333 km/h
35 12-07-2020 10:00:00 16.29167 C 10.39 g/m*3 16.29 C 3.74167 km/h
36 12-07-2020 11:00:00 19.2 C 9.7 g/m*3 19.2 C 8.33333 km/h
37 12-07-2020 12:00:00 20.18333 C 9 g/m*3 20.18 C 7.78333 km/h
38 12-07-2020 13:00:00 21.31667 C 8.4 g/m*3 21.32 C 9.275 km/h
39 12-07-2020 14:00:00 21.93333 C 8.28 g/m*3 21.93 C 10.08333 km/h
40 12-07-2020 15:00:00 23.325 C 8.08 g/m*3 23.33 C 9.54167 km/h
41 12-07-2020 16:00:00 24.5 C 8.28 g/m*3 24.5 C 12.35833 km/h
42 12-07-2020 17:00:00 24.33333 C 8.13 g/m*3 24.33 C 12.1 km/h
43 12-07-2020 18:00:00 24.475 C 8.12 g/m*3 24.48 C 10.34167 km/h
44 12-07-2020 19:00:00 22.85 C 8.42 g/m*3 22.85 C 6.84167 km/h
45 12-07-2020 20:00:00 22.41667 C 8.42 g/m*3 22.42 C 11.16667 km/h
46 12-07-2020 21:00:00 20.50833 C 8.99 g/m*3 20.51 C 4.025 km/h
47 12-07-2020 22:00:00 17.125 C 8.97 g/m*3 17.13 C 3.6 km/h
48 12-07-2020 23:00:00 15.5 C 9.18 g/m*3 15.5 C 2.13333 km/h
49 13-07-2020 00:00:00 14.03333 C 9.01 g/m*3 14.03 C 0.13333 km/h
50 13-07-2020 01:00:00 12.68333 C 8.77 g/m*3 12.68 C 0.26667 km/h
Sensor: Nr:Datum:Temp:Abs-Feuchte:Windchill:Wind:
Aussen-T/F 51 13-07-2020 02:00:00 11.8 C 8.61 g/m*3 11.8 C 0 km/h
52 13-07-2020 03:00:00 11.04167 C 8.51 g/m*3 11.04 C 0 km/h
53 13-07-2020 04:00:00 10.31667 C 8.32 g/m*3 10.32 C 0 km/h
54 13-07-2020 05:00:00 9.83333 C 8.27 g/m*3 9.83 C 0 km/h
55 13-07-2020 06:00:00 10.01667 C 8.54 g/m*3 10.02 C 0.13333 km/h
56 13-07-2020 07:00:00 10.58333 C 8.87 g/m*3 10.58 C 0 km/h
57 13-07-2020 08:00:00 11.76667 C 9.58 g/m*3 11.77 C 0.26667 km/h
58 13-07-2020 09:00:00 14.44167 C 10.32 g/m*3 14.44 C 1.86667 km/h
59 13-07-2020 10:00:00 18.2 C 10.63 g/m*3 18.2 C 3.06667 km/h
60 13-07-2020 11:00:00 21.71667 C 10.01 g/m*3 21.72 C 5.34167 km/h
61 13-07-2020 12:00:00 23.29167 C 8.83 g/m*3 23.29 C 9.675 km/h
62 13-07-2020 13:00:00 24.03333 C 8.66 g/m*3 24.03 C 9.55833 km/h
63 13-07-2020 14:00:00 24.675 C 8.42 g/m*3 24.68 C 10.5 km/h
64 13-07-2020 15:00:00 26.14167 C 8.32 g/m*3 26.14 C 9.00833 km/h
65 13-07-2020 16:00:00 28.475 C 8.49 g/m*3 28.48 C 6.7 km/h
66 13-07-2020 17:00:00 28.575 C 8.23 g/m*3 28.58 C 9.15 km/h
67 13-07-2020 18:00:00 28.725 C 7.95 g/m*3 28.73 C 6.03333 km/h
68 13-07-2020 19:00:00 28 C 7.61 g/m*3 28 C 6.71667 km/h
69 13-07-2020 20:00:00 26.56667 C 7.94 g/m*3 26.57 C 5.61667 km/h
70 13-07-2020 21:00:00 23.84167 C 9.56 g/m*3 23.84 C 1.73333 km/h
71 13-07-2020 22:00:00 20.60833 C 9.65 g/m*3 20.61 C 3.73333 km/h
72 13-07-2020 23:00:00 18.68333 C 9.53 g/m*3 18.68 C 4.26667 km/h
73 14-07-2020 00:00:00 17.575 C 9.47 g/m*3 17.58 C 2.66667 km/h
74 14-07-2020 01:00:00 16.525 C 9.53 g/m*3 16.52 C 1.86667 km/h
75 14-07-2020 02:00:00 15.075 C 9.56 g/m*3 15.08 C 0 km/h
Sensor: Nr:Datum:Temp:Abs-Feuchte:Windchill:Wind:
Aussen-T/F 76 14-07-2020 03:00:00 13.75 C 9.39 g/m*3 13.75 C 0 km/h
77 14-07-2020 04:00:00 12.94167 C 9.29 g/m*3 12.94 C 0 km/h
78 14-07-2020 05:00:00 12.4 C 9.22 g/m*3 12.4 C 0 km/h
79 14-07-2020 06:00:00 12.38333 C 9.34 g/m*3 12.38 C 0 km/h
80 14-07-2020 07:00:00 13.76667 C 9.95 g/m*3 13.77 C 0 km/h
81 14-07-2020 08:00:00 14.95 C 10.33 g/m*3 14.95 C 0 km/h
82 14-07-2020 09:00:00 15.875 C 10.83 g/m*3 15.88 C 0 km/h
83 14-07-2020 10:00:00 19.15 C 10.95 g/m*3 19.15 C 0 km/h
84 14-07-2020 11:00:00 22.39167 C 10.47 g/m*3 22.39 C 2.00833 km/h
85 14-07-2020 12:00:00 23.85 C 9.94 g/m*3 23.85 C 7.11667 km/h
86 14-07-2020 13:00:00 25.65833 C 9.3 g/m*3 25.66 C 9.40833 km/h
87 14-07-2020 14:00:00 25.725 C 9.45 g/m*3 25.73 C 10.075 km/h
88 14-07-2020 15:00:00 25.35 C 9.53 g/m*3 25.35 C 7.53333 km/h
89 14-07-2020 16:00:00 25.64167 C 10.04 g/m*3 25.64 C 9.39167 km/h
90 14-07-2020 17:00:00 24.83333 C 10.64 g/m*3 24.83 C 15.56667 km/h
91 14-07-2020 18:00:00 21.80833 C 10.59 g/m*3 21.81 C 14.36667 km/h
92 14-07-2020 19:00:00 19.96667 C 11.1 g/m*3 19.97 C 8.325 km/h
93 14-07-2020 20:00:00 18.59167 C 12.02 g/m*3 18.59 C 6.83333 km/h
94 14-07-2020 21:00:00 17.44167 C 12.59 g/m*3 17.44 C 1.06667 km/h
95 14-07-2020 22:00:00 16.4 C 12.31 g/m*3 16.4 C 1.86667 km/h
96 14-07-2020 23:00:00 15.84167 C 12.02 g/m*3 15.84 C 1.06667 km/h
97 15-07-2020 00:00:00 15.70833 C 11.91 g/m*3 15.71 C 0 km/h
98 15-07-2020 01:00:00 15.98333 C 11.64 g/m*3 15.98 C 2.53333 km/h
99 15-07-2020 02:00:00 16.15 C 11.64 g/m*3 16.15 C 4.53333 km/h
100 15-07-2020 03:00:00 15.85833 C 11.79 g/m*3 15.86 C 4.55833 km/h
Sensor: Nr:Datum:Temp:Abs-Feuchte:Windchill:Wind:
Aussen-T/F 101 15-07-2020 04:00:00 15.475 C 12.02 g/m*3 15.48 C 0.53333 km/h
102 15-07-2020 05:00:00 15.11667 C 12.1 g/m*3 15.12 C 1.33333 km/h
103 15-07-2020 06:00:00 14.83333 C 11.93 g/m*3 14.83 C 2.94167 km/h
104 15-07-2020 07:00:00 14.6 C 11.88 g/m*3 14.6 C 1.06667 km/h
105 15-07-2020 08:00:00 14.80833 C 11.85 g/m*3 14.81 C 5.5 km/h
106 15-07-2020 09:00:00 15.49167 C 11.34 g/m*3 15.49 C 9.68333 km/h
107 15-07-2020 10:00:00 16.30833 C 10.53 g/m*3 16.31 C 11.425 km/h
108 15-07-2020 11:00:00 17.8 C 9.94 g/m*3 17.8 C 12.23333 km/h
109 15-07-2020 12:00:00 18.4 C 9.49 g/m*3 18.4 C 13.69167 km/h
110 15-07-2020 13:00:00 19.2 C 9.59 g/m*3 19.2 C 12.9 km/h
111 15-07-2020 14:00:00 20.05 C 9.55 g/m*3 20.05 C 13.7 km/h
112 15-07-2020 15:00:00 20.94167 C 9.6 g/m*3 20.94 C 14.23333 km/h
113 15-07-2020 16:00:00 21.59167 C 9.78 g/m*3 21.59 C 14.36667 km/h
114 15-07-2020 17:00:00 21.28333 C 9.65 g/m*3 21.28 C 12.5 km/h
115 15-07-2020 18:00:00 20.6 C 9.37 g/m*3 20.6 C 9.96667 km/h
116 15-07-2020 19:00:00 20.225 C 9.24 g/m*3 20.23 C 9.025 km/h
117 15-07-2020 20:00:00 19.74167 C 9.77 g/m*3 19.74 C 3.875 km/h
118 15-07-2020 21:00:00 17.95833 C 10.44 g/m*3 17.96 C 2.13333 km/h
119 15-07-2020 22:00:00 16.80833 C 10.13 g/m*3 16.81 C 6.425 km/h
120 15-07-2020 23:00:00 16.31667 C 10.32 g/m*3 16.32 C 2.93333 km/h
121 16-07-2020 00:00:00 15.775 C 10.36 g/m*3 15.78 C 0.4 km/h
122 16-07-2020 01:00:00 14.93333 C 10.28 g/m*3 14.93 C 1.73333 km/h
123 16-07-2020 02:00:00 15.31667 C 10.74 g/m*3 15.32 C 0.53333 km/h
124 16-07-2020 03:00:00 15.20833 C 10.98 g/m*3 15.21 C 0 km/h
125 16-07-2020 04:00:00 15.25833 C 11.32 g/m*3 15.26 C 1.2 km/h
Sensor: Nr:Datum:Temp:Abs-Feuchte:Windchill:Wind:
Aussen-T/F 126 16-07-2020 05:00:00 14.99167 C 11.56 g/m*3 14.99 C 0.13333 km/h
127 16-07-2020 06:00:00 14.525 C 11.47 g/m*3 14.53 C 3.475 km/h
128 16-07-2020 07:00:00 14.39167 C 11.5 g/m*3 14.39 C 1.2 km/h
129 16-07-2020 08:00:00 15 C 11.86 g/m*3 15 C 4.675 km/h
130 16-07-2020 09:00:00 15.36667 C 12.08 g/m*3 15.37 C 5.21667 km/h
131 16-07-2020 10:00:00 15.88333 C 12.2 g/m*3 15.88 C 3.33333 km/h
132 16-07-2020 11:00:00 16.46667 C 12.38 g/m*3 16.47 C 3.6 km/h
133 16-07-2020 12:00:00 16.51667 C 12.87 g/m*3 16.52 C 4.15 km/h
134 16-07-2020 13:00:00 17.11667 C 13.02 g/m*3 17.12 C 6.425 km/h
135 16-07-2020 14:00:00 17.18333 C 12.95 g/m*3 17.18 C 7.39167 km/h
136 16-07-2020 15:00:00 17.34167 C 13.11 g/m*3 17.34 C 8.075 km/h
137 16-07-2020 16:00:00 17.14167 C 13.47 g/m*3 17.14 C 3.475 km/h
138 16-07-2020 17:00:00 17.96667 C 13.2 g/m*3 17.97 C 4 km/h
139 16-07-2020 18:00:00 18.20833 C 13.49 g/m*3 18.21 C 0.93333 km/h
140 16-07-2020 19:00:00 17.80833 C 13.5 g/m*3 17.81 C 1.73333 km/h
141 16-07-2020 20:00:00 17.025 C 13.33 g/m*3 17.02 C 2.94167 km/h
142 16-07-2020 21:00:00 15.93333 C 12.36 g/m*3 15.93 C 6.44167 km/h
143 16-07-2020 22:00:00 15.475 C 12.31 g/m*3 15.48 C 3.46667 km/h
144 16-07-2020 23:00:00 15.26667 C 12.33 g/m*3 15.27 C 1.2 km/h
145 17-07-2020 00:00:00 15.14167 C 12.29 g/m*3 15.14 C 1.73333 km/h
146 17-07-2020 01:00:00 15.1 C 12.32 g/m*3 15.1 C 0.8 km/h
147 17-07-2020 02:00:00 15.125 C 12.4 g/m*3 15.13 C 0.53333 km/h
148 17-07-2020 03:00:00 15.16667 C 12.44 g/m*3 15.17 C 1.33333 km/h
149 17-07-2020 04:00:00 15.2 C 12.46 g/m*3 15.2 C 0 km/h
150 17-07-2020 05:00:00 15.2 C 12.46 g/m*3 15.2 C 0 km/h
Sensor: Nr:Datum:Temp:Abs-Feuchte:Windchill:Wind:
Aussen-T/F 151 17-07-2020 06:00:00 15.225 C 12.48 g/m*3 15.23 C 1.06667 km/h
152 17-07-2020 07:00:00 15.34167 C 12.57 g/m*3 15.34 C 0.26667 km/h
153 17-07-2020 08:00:00 15.575 C 12.83 g/m*3 15.58 C 0.53333 km/h
154 17-07-2020 09:00:00 15.84167 C 12.96 g/m*3 15.84 C 4.00833 km/h
155 17-07-2020 10:00:00 16.775 C 13.41 g/m*3 16.77 C 7.39167 km/h
156 17-07-2020 11:00:00 18.16667 C 13.46 g/m*3 18.17 C 5.76667 km/h
157 17-07-2020 12:00:00 19.275 C 13.31 g/m*3 19.27 C 3.2 km/h
158 17-07-2020 13:00:00 20.54167 C 12.9 g/m*3 20.54 C 5.35 km/h
159 17-07-2020 14:00:00 21.6 C 12.44 g/m*3 21.6 C 8.33333 km/h
160 17-07-2020 15:00:00 22.95833 C 12.05 g/m*3 22.96 C 7.50833 km/h
161 17-07-2020 16:00:00 23.825 C 12.78 g/m*3 23.83 C 4.83333 km/h
162 17-07-2020 17:00:00 23.89167 C 11.28 g/m*3 23.89 C 9.93333 km/h
163 17-07-2020 18:00:00 24.35833 C 11.32 g/m*3 24.36 C 10.75833 km/h
164 17-07-2020 19:00:00 24.3 C 11.78 g/m*3 24.3 C 10.225 km/h
165 17-07-2020 20:00:00 22.58333 C 11.82 g/m*3 22.58 C 6.56667 km/h
166 17-07-2020 21:00:00 20.50833 C 12.11 g/m*3 20.51 C 3.2 km/h
167 17-07-2020 22:00:00 17.84167 C 12.2 g/m*3 17.84 C 3.73333 km/h
168 17-07-2020 23:00:00 16.525 C 12.06 g/m*3 16.52 C 4 km/h

Maximal/Minimal-Werte vom 23.02.2003 - 03.08.2020

Sensor Min Max Avg
Temp
(Aussen-T/F)
-16.4 °C
20-12-2009  01:30:01
40.4 °C
25-07-2019  16:20:00
11.23 °C

Die Daten stammen von einer Davis Vantage Pro 2 Wetter-Station und werden unter Linux mit der Software wview2wettercgi und aufbereitet. Alle Angaben erfolgen ohne Gewähr für ihre Vollständigkeit oder Richtigkeit.
Kontakt: Rainer Krienke krienke@uni-koblenz.de . Meine Webseiten an der Uni Koblenz oder privat.
Version: $Revision: 0.78 $